Terminal Aerodrome Forecast
Issued by NWS

Home | Current Version | Previous Version | Text Only | Print | Product List | Glossary On
Versions: 1 2 3 4 5 6 7 8 9 10 11 12 13 14 15 16 17 18 19 20 21 22
000
FTUS41 KPBZ 020500
TAFDUJ
TAF
KDUJ 020521Z 0206/0306 14004KT P6SM SCT050
     FM020700 00000KT 4SM BR SCT050
     FM021400 13005KT P6SM VCSH SCT030 BKN100=

USA.gov is the U.S. government's official web portal to all federal, state and local government web resources and services.